Location: Litvinovka
(48.6667°N, 34.3500°E)
Time: 02:19:51
(UTC+00:00)

In-Cosmos 22 - Pass Details

Date: 18 September 2020
Orbit: 785 x 877 km, 81.2° (Epoch: 22 October)

Event Time Altitude Azimuth Distance (km) Brightness Sun altitude
Rises 17:26:41 0° 347° (NNW) 3,289 7.8 -16.6°
Reaches altitude 10° 17:29:04 10° 346° (NNW) 2,356 7.0 -17.0°
Maximum altitude 17:34:21 78° 262° (W) 811 4.2 -17.8°
Drops below altitude 10° 17:39:40 10° 175° (S) 2,364 6.2 -18.6°
Enters shadow 17:39:49 - 175° (S) 2,421 6.3 -18.6°
